[[{"header":{"parameterUnit":"m.s-1","parameterCategory":1,"la1":30.2991,"la2":30.254,"lo1":-89.0895,"lo2":-89.0444,"dy":0.0017,"dx":0.0017,"nx":28,"ny":28,"refTime":"2023-08-27T09:00:00:Z","depth":0,"parameterNumber":2,"parameterNumberName":"U-component_of_WINDS"},"data":[0,0,0,0,0,0,0,0,0,0,0,0,0,0,0,0,0,0,0,0,0,0,0,0,0,0,0,0,0,0,0,0,0,0,0,0,0,0,0,0,0,0,0,0,0,0,0,0,0,0,0,0,0,0,0,0,0,0,0.7086,0.7087,0,0.7163,0.7164,0.7164,0.7154,0.7153,0.7152,0.7151,0.723,0.7233,0.7237,0,0,0,0,0,0,0,0,0,0,0,0,0,0.6932,0.6934,0.7086,0.7087,0.7088,0.7163,0.7164,0.7165,0.7155,0.7153,0.7151,0.715,0.7229,0.7233,0.7237,0,0,0,0,0,0,0,0,0,0,0,0,0,0.7002,0.6935,0.7086,0.7092,0.7093,0.7162,0.7164,0.7165,0.7155,0.7153,0.7151,0.7149,0.7228,0.7233,0.7237,0.7306,0,0,0.7253,0.7255,0,0,0,0,0,0,0,0,0.6998,0.7008,0.709,0.7092,0.7093,0.7147,0.7138,0.7212,0.7155,0.7131,0.7151,0.7148,0.7204,0.7211,0.7229,0.731,0.7313,0.7253,0.7256,0.7258,0.726,0,0,0,0,0,0,0,0.6994,0.7005,0.7116,0.7091,0.7093,0.7091,0.7099,0.7152,0.7178,0.7133,0.7133,0.7142,0.7205,0.7225,0.7231,0.7314,0.7253,0.7257,0.726,0.7262,0.7454,0.7456,0,0,0,0,0,0,0.6987,0.7001,0.7114,0.7119,0.704,0.7095,0.7104,0.7132,0.7177,0.7182,0.7144,0.7141,0.7217,0.7225,0.7234,0.7317,0.7258,0.7263,0.7266,0.7452,0.7454,0.7456,0,0,0,0,0,0,0.6984,0.6997,0.7111,0.706,0.7074,0.71,0.7131,0.7134,0.7154,0.7185,0.7189,0.7159,0.7216,0.7227,0.7288,0.7319,0.7265,0.7269,0.7449,0.7452,0.7455,0.7482,0,0,0,0,0,0,0.6979,0.6996,0.7022,0.706,0.7077,0.7163,0.7133,0.7137,0.7163,0.716,0.7201,0.7205,0.7215,0.728,0.7293,0.7325,0.7273,0.7446,0.7451,0.7454,0.7479,0.7486,0.7492,0,0,0,0,0,0.6974,0.7027,0.7024,0.7037,0.711,0.7165,0.7175,0.7185,0.7165,0.7192,0.7211,0.7204,0.7314,0.7287,0.7301,0.7335,0.7444,0.7449,0.7454,0.7476,0.7485,0.7492,0,0,0,0,0,0,0.6993,0.7032,0.7029,0.7096,0.7127,0.7163,0.7197,0.7194,0.7231,0.7228,0.7239,0.7248,0.7309,0.7328,0.7297,0.7403,0.7376,0.7384,0.7388,0.7397,0.7404,0.7398,0.7277,0,0,0,0,0,0.7005,0.7046,0.7078,0.7135,0.715,0.7171,0.7196,0.72,0.7233,0.7247,0.7271,0.7303,0.7345,0.7372,0.7412,0.7481,0.749,0.7512,0.7518,0.7524,0.753,0.7568,0.7578,0.7472,0.7472,0.7472,0,0,0.703,0.7057,0.7082,0.7139,0.7164,0.7206,0.7182,0.7229,0.726,0.7254,0.7312,0.7331,0.7368,0.7433,0.7463,0.7451,0.7562,0.753,0.7534,0.7538,0.7574,0.7584,0.7593,0.7475,0.7475,0.7474,0,0,0.7097,0.7122,0.7171,0.7196,0.7234,0.7247,0.7259,0.7295,0.7307,0.7366,0.7362,0.74,0.7472,0.7498,0.7521,0.7598,0.7593,0.7611,0.7646,0.7682,0.7691,0.7698,0.7725,0.7735,0.7617,0.7617,0.7617,0,0.7124,0.7188,0.7197,0.7243,0.7268,0.7264,0.7314,0.7338,0.7387,0.7404,0.739,0.7479,0.7504,0.7575,0.7593,0.7612,0.7626,0.7606,0.7689,0.7696,0.7703,0.7729,0.7739,0.7619,0.7619,0.7619,0.7618,0,0.7218,0.7263,0.7298,0.7344,0.7374,0.7422,0.7438,0.7466,0.7469,0.7483,0.7543,0.7573,0.7618,0.7636,0.7639,0.7707,0.7698,0.7686,0.766,0.7715,0.774,0.775,0.7622,0.7621,0.762,0.762,0,0,0.73,0.7351,0.7363,0.7384,0.7425,0.746,0.7507,0.7551,0.7575,0.7609,0.7649,0.771,0.7699,0.7725,0.773,0.7763,0.7821,0.7747,0.7748,0.7759,0.7898,0.7906,0.7918,0.7818,0.782,0.7821,0.7894,0,0.7371,0.7455,0.7464,0.7539,0.758,0.7576,0.7618,0.7647,0.7662,0.7699,0.7716,0.7759,0.7741,0.7756,0.7788,0.7807,0.7849,0.7802,0.7855,0.7857,0.7846,0.793,0.794,0.8007,0.7904,0.7906,0.7907,0,0.7465,0.7501,0.758,0.7614,0.7632,0.7669,0.771,0.7745,0.7779,0.7787,0.7816,0.7818,0.7867,0.7838,0.7906,0.7874,0.7897,0.7909,0.7912,0.7917,0.7885,0.7938,0.8029,0.8039,0.7922,0.7921,0.792,0,0.7516,0.7584,0.764,0.7658,0.77,0.7726,0.7745,0.7776,0.7802,0.7838,0.7855,0.7896,0.7919,0.7951,0.7964,0.7942,0.8031,0.8004,0.8039,0.8039,0.8058,0.8057,0.8154,0.8073,0.8073,0.8073,0.8073,0,0.7594,0.7643,0.7663,0.7698,0.7751,0.7762,0.7815,0.7833,0.7861,0.7898,0.7898,0.7933,0.7948,0.7986,0.7996,0.8051,0.8061,0.8069,0.8072,0.8069,0.8068,0.8084,0.8079,0.8076,0.8075,0.8074,0.8074,0,0.766,0.7676,0.7737,0.7771,0.7781,0.7819,0.7849,0.7882,0.7896,0.7944,0.7956,0.7979,0.8023,0.8039,0.8093,0.81,0.8163,0.8162,0.8152,0.8152,0.8187,0.8183,0.8298,0.8313,0.8222,0.8223,0.8224,0,0.7709,0.7746,0.7784,0.7809,0.7829,0.7869,0.7895,0.7907,0.7934,0.7974,0.8003,0.8047,0.8083,0.8154,0.8175,0.8217,0.8216,0.8253,0.8222,0.8219,0.8216,0.8214,0.8217,0.8259,0.826,0.8261,0.8261,0,0.7793,0.7799,0.7837,0.7877,0.7908,0.794,0.7972,0.7992,0.8008,0.8039,0.8084,0.8112,0.8167,0.821,0.8253,0.8272,0.827,0.8271,0.8281,0.8279,0.8272,0.8276,0.8167,0.8268,0.8268,0.8267,0.8267,0.8266,0.7852,0.7884,0.7916,0.7958,0.7982,0.8012,0.8044,0.8063,0.81,0.8145,0.815,0.8199,0.8231,0.8287,0.8309,0.8347,0.8337,0.8352,0.8356,0.8359,0.8362,0.8266,0.8355,0.8355,0.8354,0.8354,0.8354,0,0.7936,0.7956,0.7994,0.8038,0.807,0.8065,0.8099,0.8127,0.8169,0.8199,0.8234,0.8286,0.8328,0.8353,0.8395,0.8421,0.8421,0.8432,0.843,0.8435,0.8368,0.8355,0.8431,0.8431,0.8431,0.8431,0.8431,0.8431,0.7983,0.8038,0.8047,0.8114,0.8134,0.8181,0.8201,0.8228,0.8252,0.8309,0.8344,0.836,0.8388,0.8432,0.8471,0.8477,0.8492,0.8504,0.8509,0.8447,0.8439,0.8432,0.8419,0.8508,0.8508,0.8572,0.8573,0.8573]},{"header":{"parameterUnit":"m.s-1","parameterCategory":1,"la1":30.2991,"la2":30.254,"lo1":-89.0895,"lo2":-89.0444,"dy":0.0017,"dx":0.0017,"nx":28,"ny":28,"refTime":"2023-08-27T09:00:00:Z","depth":0,"parameterNumber":3,"parameterNumberName":"V-component_of_WINDS"},"data":[0,0,0,0,0,0,0,0,0,0,0,0,0,0,0,0,0,0,0,0,0,0,0,0,0,0,0,0,0,0,0,0,0,0,0,0,0,0,0,0,0,0,0,0,0,0,0,0,0,0,0,0,0,0,0,0,0,0,4.8315,4.8316,0,4.8365,4.8365,4.8366,4.8303,4.8301,4.8299,4.8296,4.8341,4.8344,4.8348,0,0,0,0,0,0,0,0,0,0,0,0,0,4.8162,4.8165,4.8315,4.8316,4.8317,4.8365,4.8365,4.8366,4.8304,4.8301,4.8298,4.8295,4.834,4.8344,4.8348,0,0,0,0,0,0,0,0,0,0,0,0,0,4.8221,4.8166,4.8315,4.8292,4.829,4.8364,4.8365,4.8366,4.8304,4.8301,4.8297,4.8294,4.8339,4.8344,4.8349,4.8447,0,0,4.8364,4.8366,0,0,0,0,0,0,0,0,4.8218,4.8227,4.8294,4.8293,4.8292,4.8324,4.8327,4.8393,4.8305,4.8299,4.8296,4.8292,4.8338,4.8343,4.8359,4.8449,4.8451,4.8364,4.8367,4.8369,4.8371,0,0,0,0,0,0,0,4.8214,4.8225,4.8335,4.8295,4.8294,4.8276,4.8281,4.834,4.8336,4.8299,4.8294,4.8301,4.8336,4.8355,4.836,4.8452,4.8364,4.8368,4.8371,4.8373,4.8624,4.8628,0,0,0,0,0,0,4.8214,4.8222,4.8333,4.8336,4.8246,4.8282,4.8287,4.8317,4.8336,4.8335,4.8304,4.8298,4.8348,4.8354,4.8361,4.8477,4.8369,4.8374,4.8377,4.8621,4.8625,4.8629,0,0,0,0,0,0,4.8211,4.8224,4.8331,4.8278,4.829,4.8288,4.8322,4.832,4.8338,4.834,4.8338,4.8324,4.8345,4.8354,4.8426,4.8478,4.8376,4.8381,4.8616,4.8622,4.8627,4.8711,0,0,0,0,0,0,4.8206,4.8223,4.8262,4.8279,4.8293,4.8398,4.8326,4.8323,4.8347,4.834,4.8358,4.8357,4.8343,4.8419,4.8431,4.8483,4.8384,4.8611,4.8619,4.8625,4.8704,4.8719,4.8732,0,0,0,0,0,4.8201,4.8283,4.8265,4.8278,4.8342,4.8401,4.8408,4.8392,4.8352,4.839,4.8391,4.8357,4.8471,4.8427,4.844,4.8494,4.8608,4.8617,4.8625,4.8697,4.8716,4.8732,0,0,0,0,0,0,4.8269,4.8284,4.8264,4.8354,4.8377,4.839,4.8437,4.8412,4.8445,4.8437,4.8414,4.8418,4.8495,4.8502,4.8453,4.859,4.8532,4.8544,4.8583,4.8601,4.8615,4.8611,4.8389,0,0,0,0,0,4.8296,4.8344,4.8353,4.8432,4.8444,4.8439,4.8464,4.845,4.8472,4.848,4.8487,4.8507,4.8548,4.8575,4.8612,4.8705,4.8707,4.8748,4.8762,4.8774,4.8783,4.8832,4.8851,4.8656,4.8656,4.8656,0,0,4.8349,4.8363,4.8394,4.8446,4.8462,4.8511,4.8448,4.8502,4.8537,4.8488,4.8557,4.8562,4.8584,4.8667,4.8704,4.8675,4.8838,4.8784,4.8793,4.8797,4.8843,4.8861,4.8878,4.8662,4.8661,4.866,0,0,4.8471,4.8487,4.8554,4.8572,4.8597,4.8593,4.861,4.8627,4.8629,4.8699,4.8663,4.8703,4.8774,4.8791,4.8808,4.8938,4.8907,4.895,4.9023,4.9071,4.9087,4.91,4.9146,4.9162,4.896,4.896,4.896,0,4.8533,4.8607,4.8591,4.8648,4.8672,4.8631,4.8698,4.8715,4.8751,4.8767,4.8734,4.8822,4.8834,4.892,4.8952,4.8967,4.8984,4.8948,4.9086,4.9099,4.9112,4.9155,4.9172,4.8965,4.8965,4.8964,4.8964,0,4.8682,4.8734,4.8785,4.8823,4.8852,4.8913,4.8905,4.8936,4.8919,4.8918,4.8989,4.9002,4.9041,4.906,4.9044,4.9144,4.9125,4.909,4.9031,4.9136,4.9176,4.9192,4.8973,4.8971,4.8969,4.8968,0,0,4.8848,4.8877,4.8896,4.8913,4.8938,4.8977,4.9036,4.9077,4.9103,4.9129,4.9177,4.9238,4.9206,4.9226,4.9211,4.9254,4.9355,4.9213,4.9213,4.9238,4.9465,4.9492,4.9511,4.9335,4.9338,4.9341,4.9464,0,4.897,4.9075,4.9062,4.9162,4.9209,4.9172,4.9223,4.9244,4.9245,4.9283,4.9283,4.9326,4.9281,4.9293,4.9333,4.9334,4.94,4.9325,4.9378,4.938,4.9374,4.9532,4.956,4.9676,4.9479,4.9482,4.9484,0,4.9126,4.916,4.9265,4.9284,4.9303,4.935,4.9386,4.9424,4.9446,4.9443,4.9467,4.9444,4.9502,4.9443,4.9522,4.9471,4.9492,4.9496,4.95,4.9504,4.9438,4.954,4.9712,4.9729,4.9508,4.9506,4.9505,0,4.9236,4.9308,4.938,4.9395,4.9419,4.9453,4.9464,4.9483,4.9508,4.9539,4.9554,4.9591,4.9611,4.9639,4.9626,4.9585,4.9707,4.9647,4.9705,4.9706,4.9732,4.9731,4.991,4.9747,4.9747,4.9746,4.9746,0,4.9373,4.9439,4.943,4.9474,4.9546,4.953,4.9601,4.9607,4.9625,4.9668,4.9637,4.9678,4.966,4.9699,4.969,4.9756,4.9765,4.9764,4.976,4.9766,4.9767,4.9779,4.9771,4.9751,4.975,4.9749,4.9748,0,4.9507,4.9504,4.9581,4.9598,4.9603,4.9656,4.9669,4.971,4.9709,4.9765,4.9776,4.9774,4.9819,4.981,4.9858,4.9852,4.9935,4.9922,4.9929,4.9925,4.9984,4.9979,5.0177,5.0202,5.0024,5.0025,5.0027,0,4.9595,4.9645,4.9668,4.9696,4.9711,4.9756,4.9782,4.9768,4.9796,4.9825,4.9862,4.9905,4.9938,5.0011,5.0013,5.005,5.0037,5.0104,5.0042,5.0047,5.0038,5.0035,5.0039,5.0116,5.0118,5.012,5.0121,0,4.9751,4.9747,4.9787,4.9827,4.9859,4.9889,4.9916,4.994,4.9928,4.9961,5.0008,5.0034,5.0085,5.0127,5.0162,5.0171,5.0144,5.0141,5.0156,5.0163,5.0165,5.0164,4.9962,5.0136,5.0135,5.0134,5.0133,5.0132,4.9864,4.9907,4.993,4.9975,4.9995,5.0021,5.006,5.0065,5.0104,5.0146,5.0135,5.0188,5.0208,5.0252,5.0265,5.0305,5.028,5.0302,5.0308,5.0314,5.0321,5.0159,5.0311,5.0311,5.0311,5.031,5.031,0,5.0017,5.0031,5.0073,5.0113,5.0149,5.0122,5.0151,5.0182,5.0229,5.0251,5.0286,5.0339,5.038,5.0386,5.0424,5.0455,5.0444,5.0466,5.0463,5.0466,5.0341,5.0324,5.0474,5.0474,5.0474,5.0474,5.0474,5.0474,5.0101,5.0173,5.0172,5.0252,5.0264,5.0318,5.0336,5.0359,5.0377,5.0439,5.0474,5.0478,5.0493,5.0533,5.0569,5.0569,5.0584,5.0611,5.0607,5.0491,5.0474,5.0459,5.0442,5.0615,5.0615,5.0727,5.0728,5.0729]}]]